This is the latest recevied weather packets stored in our database for station/object IZ1UQG-1. If no packets are shown the sender has not sent any weather packets the latest 10 day(s).
| Time | Temp. | Humidity | Pressure | Rain* | Wind** | Luminosity | Snow |
|---|---|---|---|---|---|---|---|
| 1777610044 | 14.44° C | 53% | 1026.3 hPa | 133.86 mm | - | - | - |
| 1777609744 | 14.44° C | 53% | 1026.3 hPa | 149.35 mm | - | - | - |
| 1777609444 | 14.44° C | 53% | 1026.1 hPa | 173.74 mm | - | - | - |
| 1777609144 | 14.44° C | 53% | 1026.2 hPa | 112.52 mm | - | - | - |
| 1777608844 | 15° C | 52% | 1026.2 hPa | 124.46 mm | - | - | - |
| 1777608544 | 15° C | 52% | 1026 hPa | 145.29 mm | - | - | - |
| 1777608245 | 15° C | 52% | 1025.9 hPa | 145.8 mm | - | - | - |
| 1777607945 | 15° C | 52% | 1025.9 hPa | 111.51 mm | - | - | - |
| 1777607644 | 15° C | 52% | 1025.9 hPa | 170.18 mm | - | - | - |
| 1777607345 | 15° C | 52% | 1025.9 hPa | 143.26 mm | - | - | - |
| 1777607045 | 15° C | 52% | 1025.9 hPa | 175.26 mm | - | - | - |
| 1777606745 | 15° C | 52% | 1025.8 hPa | 190.75 mm | - | - | - |
| 1777606445 | 15° C | 52% | 1025.7 hPa | 219.96 mm | - | - | - |
| 1777606144 | 15° C | 52% | 1025.7 hPa | 195.07 mm | - | - | - |
| 1777605845 | 15° C | 52% | 1025.7 hPa | 209.55 mm | - | - | - |
| 1777605545 | 15° C | 52% | 1025.7 hPa | 169.16 mm | - | - | - |
| 1777605244 | 15° C | 51% | 1025.7 hPa | 194.06 mm | - | - | - |
| 1777604944 | 15° C | 51% | 1025.9 hPa | 163.83 mm | - | - | - |
| 1777604644 | 15° C | 51% | 1025.8 hPa | 156.72 mm | - | - | - |
| 1777604344 | 15° C | 51% | 1025.8 hPa | 120.9 mm | - | - | - |
| 1777604045 | 15° C | 50% | 1025.9 hPa | 211.58 mm | - | - | - |
| 1777603744 | 15° C | 50% | 1025.9 hPa | 169.16 mm | - | - | - |
| 1777603444 | 15° C | 49% | 1025.9 hPa | 138.94 mm | - | - | - |
| 1777603144 | 15° C | 49% | 1026 hPa | 101.85 mm | - | - | - |
| 1777602845 | 15° C | 48% | 1026 hPa | 176.28 mm | - | - | - |
* Rain latest hour (hover to see other rain measurements)
** Current wind speed in m/s (hover to see current wind gust speed)